Time,TemperatureF,DewpointF,PressureIn,WindDirection,WindDirectionDegrees,WindSpeedMPH,WindSpeedGustMPH,Humidity,HourlyPrecipIn,Conditions,Clouds,dailyrainin,SolarRadiationWatts/m^2,SoftwareType,DateUTC
2013-05-22 00:04:00,68.0,68.0,-100.00,SSE,168,0.0,4.0,99,0.00,,,0.00,0.000000,,2013-05-22 04:04:00,
2013-05-22 00:33:00,67.0,67.0,-100.00,SE,134,0.0,0.0,99,0.00,,,0.00,0.000000,,2013-05-22 04:33:00,
2013-05-22 00:43:00,67.0,67.0,-100.00,SE,134,0.0,0.0,99,0.00,,,0.00,0.000000,,2013-05-22 04:43:00,
2013-05-22 00:53:00,67.0,67.0,-100.00,SE,134,0.0,0.0,99,0.00,,,0.00,0.000000,,2013-05-22 04:53:00,
2013-05-22 01:02:00,67.0,67.0,-100.00,SE,134,0.0,0.0,99,0.00,,,0.00,0.000000,,2013-05-22 05:02:00,
2013-05-22 01:32:00,66.0,66.0,-100.00,SW,215,0.0,0.0,99,0.00,,,0.00,0.000000,,2013-05-22 05:32:00,
2013-05-22 01:42:00,66.0,66.0,-100.00,SW,215,0.0,0.0,99,0.00,,,0.00,0.000000,,2013-05-22 05:42:00,
2013-05-22 01:52:00,66.0,66.0,-100.00,SW,215,0.0,0.0,99,0.00,,,0.00,0.000000,,2013-05-22 05:52:00,
2013-05-22 02:01:00,66.0,66.0,-100.00,SW,215,0.0,0.0,99,0.00,,,0.00,0.000000,,2013-05-22 06:01:00,
2013-05-22 02:32:00,65.0,65.0,-100.00,SSW,213,0.0,0.0,99,0.00,,,0.00,0.000000,,2013-05-22 06:32:00,
2013-05-22 02:42:00,65.0,65.0,-100.00,SSW,213,0.0,0.0,99,0.00,,,0.00,0.000000,,2013-05-22 06:42:00,
2013-05-22 02:52:00,65.0,65.0,-100.00,SSW,213,0.0,0.0,99,0.00,,,0.00,0.000000,,2013-05-22 06:52:00,
2013-05-22 03:01:00,65.0,65.0,-100.00,SSW,213,0.0,0.0,99,0.00,,,0.00,0.000000,,2013-05-22 07:01:00,
2013-05-22 03:32:00,64.0,64.0,-100.00,SSE,155,0.0,0.0,99,0.00,,,0.00,0.000000,,2013-05-22 07:32:00,
2013-05-22 03:42:00,64.0,64.0,-100.00,SSE,155,0.0,0.0,99,0.00,,,0.00,0.000000,,2013-05-22 07:42:00,
2013-05-22 03:53:00,64.0,64.0,-100.00,SSE,155,0.0,0.0,99,0.00,,,0.00,0.000000,,2013-05-22 07:53:00,
2013-05-22 04:02:00,64.0,64.0,-100.00,SSE,155,0.0,0.0,99,0.00,,,0.00,0.000000,,2013-05-22 08:02:00,
2013-05-22 04:32:00,65.0,65.0,-100.00,WNW,287,0.0,0.0,100,0.00,,,-99.99,0.000000,,2013-05-22 08:32:00,
2013-05-22 04:42:00,65.0,65.0,-100.00,WNW,287,0.0,0.0,100,0.00,,,-99.99,0.000000,,2013-05-22 08:42:00,
2013-05-22 04:52:00,65.0,65.0,-100.00,WNW,287,0.0,0.0,100,0.00,,,-99.99,0.000000,,2013-05-22 08:52:00,
2013-05-22 05:01:00,65.0,65.0,-100.00,WNW,287,0.0,0.0,100,0.00,,,-99.99,0.000000,,2013-05-22 09:01:00,
2013-05-22 05:33:00,66.0,66.0,-100.00,West,281,0.0,0.0,100,0.00,,,0.00,0.000000,,2013-05-22 09:33:00,
2013-05-22 05:43:00,66.0,66.0,-100.00,West,281,0.0,0.0,100,0.00,,,0.00,0.000000,,2013-05-22 09:43:00,
2013-05-22 05:53:00,66.0,66.0,-100.00,West,281,0.0,0.0,100,0.00,,,0.00,0.000000,,2013-05-22 09:53:00,
2013-05-22 06:03:00,66.0,66.0,-100.00,West,281,0.0,0.0,100,0.00,,,0.00,0.000000,,2013-05-22 10:03:00,
2013-05-22 06:33:00,66.0,66.0,-100.00,SW,234,0.0,0.0,99,0.00,,,0.00,0.000000,,2013-05-22 10:33:00,
2013-05-22 06:42:00,66.0,66.0,-100.00,SW,234,0.0,0.0,99,0.00,,,0.00,0.000000,,2013-05-22 10:42:00,
2013-05-22 06:53:00,66.0,66.0,-100.00,SW,234,0.0,0.0,99,0.00,,,0.00,0.000000,,2013-05-22 10:53:00,
2013-05-22 07:02:00,66.0,66.0,-100.00,SW,234,0.0,0.0,99,0.00,,,0.00,0.000000,,2013-05-22 11:02:00,
2013-05-22 12:33:00,84.0,69.0,-100.00,WSW,251,6.0,9.0,61,-99.99,,,0.00,939.000000,,2013-05-22 16:33:00,
2013-05-22 12:42:00,84.0,69.0,-100.00,WSW,251,6.0,9.0,61,-99.99,,,0.00,939.000000,,2013-05-22 16:42:00,
2013-05-22 12:52:00,84.0,69.0,-100.00,WSW,251,6.0,9.0,61,-99.99,,,0.00,939.000000,,2013-05-22 16:52:00,
2013-05-22 13:02:00,84.0,69.0,-100.00,WSW,251,6.0,9.0,61,-99.99,,,0.00,939.000000,,2013-05-22 17:02:00,
2013-05-22 13:33:00,84.0,68.0,-100.00,West,274,4.0,10.0,58,0.00,,,0.00,939.000000,,2013-05-22 17:33:00,
2013-05-22 13:42:00,84.0,68.0,-100.00,West,274,4.0,10.0,58,0.00,,,0.00,939.000000,,2013-05-22 17:42:00,
2013-05-22 13:54:00,84.0,68.0,-100.00,West,274,4.0,10.0,58,0.00,,,0.00,939.000000,,2013-05-22 17:54:00,
2013-05-22 14:02:00,84.0,68.0,-100.00,West,274,4.0,10.0,58,0.00,,,0.00,939.000000,,2013-05-22 18:02:00,
2013-05-22 14:34:00,87.0,71.0,-100.00,West,260,4.0,11.0,60,0.00,,,0.00,912.000000,,2013-05-22 18:34:00,
2013-05-22 14:42:00,87.0,71.0,-100.00,West,260,4.0,11.0,60,0.00,,,0.00,912.000000,,2013-05-22 18:42:00,
2013-05-22 14:52:00,87.0,71.0,-100.00,West,260,4.0,11.0,60,0.00,,,0.00,912.000000,,2013-05-22 18:52:00,
2013-05-22 15:02:00,87.0,71.0,-100.00,West,260,4.0,11.0,60,0.00,,,0.00,912.000000,,2013-05-22 19:02:00,
2013-05-22 15:32:00,86.0,69.0,-100.00,West,268,4.0,10.0,57,0.00,,,0.00,753.000000,,2013-05-22 19:32:00,
2013-05-22 15:42:00,86.0,69.0,-100.00,West,268,4.0,10.0,57,0.00,,,0.00,753.000000,,2013-05-22 19:42:00,
2013-05-22 15:52:00,86.0,69.0,-100.00,West,268,4.0,10.0,57,0.00,,,0.00,753.000000,,2013-05-22 19:52:00,
2013-05-22 16:02:00,86.0,69.0,-100.00,West,268,4.0,10.0,57,0.00,,,0.00,753.000000,,2013-05-22 20:02:00,
2013-05-22 16:32:00,88.0,66.0,-100.00,SW,227,5.0,9.0,48,0.00,,,0.00,859.000000,,2013-05-22 20:32:00,
2013-05-22 16:42:00,88.0,66.0,-100.00,SW,227,5.0,9.0,48,0.00,,,0.00,859.000000,,2013-05-22 20:42:00,
2013-05-22 16:52:00,88.0,66.0,-100.00,SW,227,5.0,9.0,48,0.00,,,0.00,859.000000,,2013-05-22 20:52:00,
2013-05-22 17:01:00,88.0,66.0,-100.00,SW,227,5.0,9.0,48,0.00,,,0.00,859.000000,,2013-05-22 21:01:00,
2013-05-22 17:33:00,86.0,65.0,-100.00,WSW,254,6.0,9.0,49,0.00,,,0.00,507.000000,,2013-05-22 21:33:00,
2013-05-22 17:42:00,86.0,65.0,-100.00,WSW,254,6.0,9.0,49,0.00,,,0.00,507.000000,,2013-05-22 21:42:00,
2013-05-22 17:53:00,86.0,65.0,-100.00,WSW,254,6.0,9.0,49,0.00,,,0.00,507.000000,,2013-05-22 21:53:00,
2013-05-22 18:03:00,86.0,65.0,-100.00,WSW,254,6.0,9.0,49,0.00,,,0.00,507.000000,,2013-05-22 22:03:00,
2013-05-22 19:32:00,80.0,68.0,-100.00,West,260,7.0,14.0,67,-99.99,,,0.00,56.000000,,2013-05-22 23:32:00,
2013-05-22 19:42:00,80.0,68.0,-100.00,West,260,7.0,14.0,67,-99.99,,,0.00,56.000000,,2013-05-22 23:42:00,
2013-05-22 19:53:00,80.0,68.0,-100.00,West,260,7.0,14.0,67,-99.99,,,0.00,56.000000,,2013-05-22 23:53:00,
2013-05-22 20:01:00,80.0,68.0,-100.00,West,260,7.0,14.0,67,-99.99,,,0.00,56.000000,,2013-05-23 00:01:00,
2013-05-22 20:32:00,77.0,69.0,-100.00,West,272,5.0,15.0,76,0.00,,,0.00,30.000000,,2013-05-23 00:32:00,
2013-05-22 20:42:00,77.0,69.0,-100.00,West,272,5.0,15.0,76,0.00,,,0.00,30.000000,,2013-05-23 00:42:00,
2013-05-22 20:52:00,77.0,69.0,-100.00,West,272,5.0,15.0,76,0.00,,,0.00,30.000000,,2013-05-23 00:52:00,
2013-05-22 21:01:00,77.0,69.0,-100.00,West,272,5.0,15.0,76,0.00,,,0.00,30.000000,,2013-05-23 01:01:00,
2013-05-22 21:32:00,73.0,68.0,-100.00,West,268,1.0,9.0,84,0.00,,,0.00,1.000000,,2013-05-23 01:32:00,
2013-05-22 21:42:00,73.0,68.0,-100.00,West,268,1.0,9.0,84,0.00,,,0.00,1.000000,,2013-05-23 01:42:00,
2013-05-22 21:52:00,73.0,68.0,-100.00,West,268,1.0,9.0,84,0.00,,,0.00,1.000000,,2013-05-23 01:52:00,
2013-05-22 22:02:00,73.0,68.0,-100.00,West,268,1.0,9.0,84,0.00,,,0.00,1.000000,,2013-05-23 02:02:00,
2013-05-22 22:32:00,70.0,68.0,-100.00,WSW,249,3.0,6.0,92,0.00,,,0.00,0.000000,,2013-05-23 02:32:00,
2013-05-22 22:42:00,70.0,68.0,-100.00,WSW,249,3.0,6.0,92,0.00,,,0.00,0.000000,,2013-05-23 02:42:00,
2013-05-22 22:52:00,70.0,68.0,-100.00,WSW,249,3.0,6.0,92,0.00,,,0.00,0.000000,,2013-05-23 02:52:00,
2013-05-22 23:02:00,70.0,68.0,-100.00,WSW,249,3.0,6.0,92,0.00,,,0.00,0.000000,,2013-05-23 03:02:00,
2013-05-22 23:33:00,69.0,68.0,-100.00,West,263,5.0,10.0,95,0.00,,,0.00,0.000000,,2013-05-23 03:33:00,
2013-05-22 23:43:00,69.0,68.0,-100.00,West,263,5.0,10.0,95,0.00,,,0.00,0.000000,,2013-05-23 03:43:00,
2013-05-22 23:53:00,69.0,68.0,-100.00,West,263,5.0,10.0,95,0.00,,,0.00,0.000000,,2013-05-23 03:53:00,